Location: Cajon Junction
(34.3117°N, 117.4748°W)
Time: 16:19:32
(UTC+00:00)

SL-24 R/B - RUBIN 2 - Pass Details

Date: 18 April 2024
Orbit: 568 x 1023 km, 64.6° (Epoch: 19 May)

Event Time Altitude Azimuth Distance (km) Brightness Sun altitude
Exits shadow 12:02:04 12° 202° (SSW) 2,284 6.0 -14.9°
Maximum altitude 12:07:22 79° 117° (ESE) 915 4.4 -13.9°
Drops below altitude 10° 12:13:43 10° 32° (NNE) 2,707 7.7 -12.7°
Sets 12:16:25 0° 31° (NNE) 3,702 8.5 -12.2°
